Location: Czekan�w
(50.3488°N, 18.7344°E)
Time: 09:41:15
(UTC+00:00)

Cosmos 1842 Rocket - Pass Details

Date: 17 February 2020
Orbit: 604 x 635 km, 82.5° (Epoch: 03 April)

Event Time Altitude Azimuth Distance (km) Brightness Sun altitude
Rises 03:43:32 0° 185° (S) 2,906 6.9 -21.4°
Reaches altitude 10° 03:45:45 10° 184° (S) 2,007 6.1 -21.0°
Maximum altitude 03:50:12 78° 98° (E) 653 3.7 -20.3°
Drops below altitude 10° 03:54:43 10° 13° (NNE) 2,033 6.4 -19.6°
Sets 03:56:58 0° 12° (NNE) 2,947 7.2 -19.2°
